Location: Unspecified
(0.0000°N, 0.0000°E)
Time: 17:57:40
(UTC+00:00)

STARLINK 1067 - Pass Details

Date: 18 January 2020
Orbit: 548 x 551 km, 53.0° (Epoch: 17 January)

Event Time Altitude Azimuth Distance (km) Brightness Sun altitude
Rises 05:37:45 0° 195° (SSW) 2,714 7.2 -7.6°
Reaches altitude 10° 05:40:15 10° 182° (S) 1,818 6.5 -7.0°
Maximum altitude 05:43:44 26° 124° (SE) 1,087 6.2 -6.2°
Drops below altitude 10° 05:47:13 10° 66° (ENE) 1,811 7.0 -5.4°
Sets 05:49:42 0° 54° (NE) 2,701 7.7 -4.8°
